RAPIDEYE 2

Last updated on Mon Sep 14 2020 05:43:38 GMT+0000 (Coordinated Universal Time)

1 33312U 08040A 20257.70866322 -.00000031 00000-0 23279-5 0 9997 2 33312 97.6852 321.0963 0013388 88.2562 272.0193 14.96112013650934

Satellite not in orbit

RAPIDEYE 2